TimeCDT,TemperatureF,Dew PointF,Humidity,Sea Level PressureIn,VisibilityMPH,Wind Direction,Wind SpeedMPH,Gust SpeedMPH,PrecipitationIn,Events,Conditions,WindDirDegrees,DateUTC
12:15 AM,60.8,24.8,25,30.04,10.0,East,4.6,-,N/A,,Clear,80,2013-05-17 05:15:00
12:35 AM,60.8,26.6,27,30.03,10.0,NE,3.5,-,N/A,,Clear,50,2013-05-17 05:35:00
12:55 AM,57.2,23.0,27,30.03,10.0,NNE,5.8,-,N/A,,Clear,20,2013-05-17 05:55:00
1:15 AM,55.4,21.2,26,30.03,10.0,North,6.9,-,N/A,,Clear,10,2013-05-17 06:15:00
1:35 AM,55.4,23.0,29,30.03,10.0,North,5.8,-,N/A,,Clear,10,2013-05-17 06:35:00
1:55 AM,53.6,21.2,28,30.03,10.0,North,8.1,-,N/A,,Clear,350,2013-05-17 06:55:00
2:15 AM,55.4,23.0,29,30.03,10.0,NNW,9.2,-,N/A,,Clear,340,2013-05-17 07:15:00
2:35 AM,57.2,23.0,27,30.02,10.0,NNW,10.4,-,N/A,,Clear,330,2013-05-17 07:35:00
2:55 AM,57.2,23.0,27,30.02,10.0,NNW,9.2,-,N/A,,Clear,330,2013-05-17 07:55:00
3:15 AM,57.2,23.0,27,30.02,10.0,NNW,9.2,-,N/A,,Clear,340,2013-05-17 08:15:00
3:35 AM,57.2,24.8,29,30.02,10.0,NNW,6.9,-,N/A,,Clear,340,2013-05-17 08:35:00
3:55 AM,57.2,23.0,27,30.02,10.0,NNW,8.1,-,N/A,,Clear,330,2013-05-17 08:55:00
4:15 AM,53.6,23.0,30,30.02,10.0,NNW,6.9,-,N/A,,Clear,330,2013-05-17 09:15:00
4:35 AM,51.8,21.2,30,30.02,10.0,NE,6.9,-,N/A,,Clear,50,2013-05-17 09:35:00
4:55 AM,51.8,21.2,30,30.03,10.0,Calm,Calm,-,N/A,,Clear,0,2013-05-17 09:55:00
5:15 AM,51.8,21.2,30,30.03,10.0,Calm,Calm,-,N/A,,Clear,0,2013-05-17 10:15:00
5:35 AM,51.8,21.2,30,30.03,10.0,NNW,5.8,-,N/A,,Clear,340,2013-05-17 10:35:00
5:55 AM,51.8,21.2,30,30.03,10.0,North,8.1,-,N/A,,Clear,360,2013-05-17 10:55:00
6:15 AM,51.8,21.2,30,30.03,10.0,North,6.9,-,N/A,,Clear,10,2013-05-17 11:15:00
6:35 AM,53.6,23.0,30,30.03,10.0,NNW,6.9,-,N/A,,Clear,330,2013-05-17 11:35:00
6:55 AM,55.4,24.8,31,30.04,10.0,NW,9.2,-,N/A,,Clear,320,2013-05-17 11:55:00
7:15 AM,53.6,24.8,33,30.04,10.0,NNW,9.2,-,N/A,,Clear,330,2013-05-17 12:15:00
7:35 AM,59.0,24.8,27,30.06,10.0,NNW,9.2,-,N/A,,Clear,330,2013-05-17 12:35:00
7:55 AM,57.2,26.6,31,30.07,10.0,NW,8.1,-,N/A,,Clear,320,2013-05-17 12:55:00
8:15 AM,62.6,28.4,27,30.07,10.0,NE,3.5,-,N/A,,Clear,50,2013-05-17 13:15:00
8:35 AM,69.8,28.4,21,30.07,10.0,NE,3.5,-,N/A,,Clear,40,2013-05-17 13:35:00
8:55 AM,73.4,30.2,20,30.07,10.0,NNE,3.5,-,N/A,,Clear,30,2013-05-17 13:55:00
9:15 AM,77.0,30.2,18,30.07,10.0,Calm,Calm,-,N/A,,Clear,0,2013-05-17 14:15:00
9:35 AM,78.8,28.4,16,30.07,10.0,Calm,Calm,-,N/A,,Clear,0,2013-05-17 14:35:00
9:55 AM,80.6,28.4,15,30.07,10.0,SSE,4.6,-,N/A,,Clear,150,2013-05-17 14:55:00
10:15 AM,82.4,28.4,14,30.07,10.0,SSE,4.6,-,N/A,,Clear,160,2013-05-17 15:15:00
10:35 AM,84.2,28.4,13,30.08,10.0,Calm,Calm,-,N/A,,Clear,0,2013-05-17 15:35:00
10:55 AM,84.2,28.4,13,30.07,10.0,South,5.8,-,N/A,,Clear,170,2013-05-17 15:55:00
11:15 AM,84.2,28.4,13,30.07,10.0,Calm,Calm,-,N/A,,Clear,0,2013-05-17 16:15:00
11:35 AM,84.2,28.4,13,30.07,10.0,SSW,3.5,-,N/A,,Clear,210,2013-05-17 16:35:00
11:55 AM,86.0,28.4,12,30.08,10.0,SSW,6.9,-,N/A,,Clear,200,2013-05-17 16:55:00
12:15 PM,87.8,28.4,12,30.08,10.0,ESE,6.9,-,N/A,,Clear,120,2013-05-17 17:15:00
12:35 PM,87.8,28.4,12,30.07,10.0,SE,10.4,-,N/A,,Clear,130,2013-05-17 17:35:00
12:55 PM,87.8,28.4,12,30.07,10.0,SSE,8.1,-,N/A,,Clear,150,2013-05-17 17:55:00
1:15 PM,87.8,28.4,12,30.07,10.0,South,11.5,-,N/A,,Clear,170,2013-05-17 18:15:00
1:35 PM,87.8,28.4,12,30.07,10.0,SSE,13.8,19.6,N/A,,Clear,160,2013-05-17 18:35:00
2:15 PM,89.6,28.4,11,30.06,10.0,SSE,12.7,-,N/A,,Clear,160,2013-05-17 19:15:00
2:35 PM,87.8,28.4,12,30.06,10.0,South,13.8,24.2,N/A,,Clear,180,2013-05-17 19:35:00
2:55 PM,87.8,26.6,11,30.05,10.0,South,15.0,20.7,N/A,,Clear,190,2013-05-17 19:55:00
3:15 PM,89.6,28.4,11,30.05,10.0,South,16.1,21.9,N/A,,Clear,180,2013-05-17 20:15:00
3:35 PM,91.4,28.4,10,30.04,10.0,South,17.3,25.3,N/A,,Clear,180,2013-05-17 20:35:00
3:55 PM,91.4,28.4,10,30.04,10.0,South,18.4,25.3,N/A,,Clear,190,2013-05-17 20:55:00
4:15 PM,91.4,28.4,10,30.03,10.0,South,13.8,24.2,N/A,,Clear,170,2013-05-17 21:15:00
4:35 PM,89.6,28.4,11,30.03,10.0,South,15.0,23.0,N/A,,Clear,190,2013-05-17 21:35:00
4:55 PM,89.6,26.6,10,30.02,10.0,South,13.8,-,N/A,,Clear,170,2013-05-17 21:55:00
5:15 PM,89.6,28.4,11,30.01,10.0,SSE,10.4,18.4,N/A,,Clear,160,2013-05-17 22:15:00
5:35 PM,89.6,28.4,11,30.01,10.0,SE,9.2,17.3,N/A,,Clear,130,2013-05-17 22:35:00
5:55 PM,89.6,28.4,11,30.00,10.0,South,6.9,19.6,N/A,,Clear,170,2013-05-17 22:55:00
6:15 PM,89.6,28.4,11,30.00,10.0,South,15.0,25.3,N/A,,Clear,170,2013-05-17 23:15:00
6:35 PM,87.8,28.4,12,30.00,10.0,South,13.8,-,N/A,,Clear,170,2013-05-17 23:35:00
6:55 PM,87.8,28.4,12,30.00,10.0,South,18.4,24.2,N/A,,Clear,190,2013-05-17 23:55:00
7:15 PM,86.0,28.4,12,30.00,10.0,South,15.0,23.0,N/A,,Clear,190,2013-05-18 00:15:00
7:35 PM,84.2,26.6,12,30.00,10.0,SSW,17.3,20.7,N/A,,Clear,200,2013-05-18 00:35:00
7:55 PM,84.2,24.8,11,30.00,10.0,SSW,20.7,-,N/A,,Clear,210,2013-05-18 00:55:00
8:15 PM,82.4,21.2,10,30.01,10.0,SSW,17.3,24.2,N/A,,Clear,200,2013-05-18 01:15:00
8:35 PM,80.6,21.2,11,30.01,10.0,South,12.7,-,N/A,,Clear,190,2013-05-18 01:35:00
8:55 PM,78.8,19.4,11,30.02,10.0,South,10.4,-,N/A,,Clear,190,2013-05-18 01:55:00
9:15 PM,75.2,17.6,11,30.03,10.0,South,6.9,-,N/A,,Clear,180,2013-05-18 02:15:00
9:35 PM,73.4,15.8,11,30.03,10.0,South,5.8,-,N/A,,Clear,180,2013-05-18 02:35:00
9:55 PM,73.4,15.8,11,30.04,10.0,SSE,6.9,-,N/A,,Clear,160,2013-05-18 02:55:00
10:15 PM,69.8,12.2,11,30.04,10.0,SSE,4.6,-,N/A,,Clear,150,2013-05-18 03:15:00
10:35 PM,66.2,10.4,11,30.04,10.0,East,3.5,-,N/A,,Clear,100,2013-05-18 03:35:00
10:55 PM,64.4,8.6,11,30.04,10.0,ESE,4.6,-,N/A,,Clear,110,2013-05-18 03:55:00
11:15 PM,62.6,8.6,12,30.05,10.0,SE,5.8,-,N/A,,Clear,130,2013-05-18 04:15:00
11:35 PM,62.6,8.6,12,30.05,10.0,SSE,4.6,-,N/A,,Clear,160,2013-05-18 04:35:00
11:55 PM,60.8,10.4,14,30.05,10.0,South,3.5,-,N/A,,Clear,180,2013-05-18 04:55:00